Location: Newark
(41.9000°N, 12.4833°E)
Time: 11:16:02
(UTC+00:00)

EO-79 - Pass Details

Date: 28 May 2019
Orbit: 591 x 611 km, 97.9° (Epoch: 18 June)

Event Time Altitude Azimuth Distance (km) Brightness Sun altitude
Rises 22:56:52 0° 24° (NNE) 2,837 ? -26.5°
Reaches altitude 10° 22:59:18 10° 37° (NE) 1,929 ? -26.5°
Enters shadow 23:01:53 24° 72° (ENE) 1,229 ? -26.6°
